TGM annuale;;;;;;;;;;;;;;;;TGM annuale;;;;;;;;;;;;;;;;TGM annuale;;;;;;;;;;;;;;
Tratta nr.181 SR302, Km 21.800, Borgo San Lorenzo (FI) (flussi ascendente/discendente);;;;;;;;;;;;;;;;Tratta nr.181 SR302, Km 21.800, Borgo San Lorenzo (FI) (flusso ascendente);;;;;;;;;;;;;;;;Tratta nr.181 SR302, Km 21.800, Borgo San Lorenzo (FI) (flusso discendente);;;;;;;;;;;;;;
Anno;01 Motocicli;02 Auto e monovolume;03 Auto e monovolume con rimorchio;04 Furgoncini e camioncini;05 Camion medi;06 Camion grandi;07 Autotreni;08 Autoarticolati;09 Autobus;10 Veicoli non classificati;Totale;Feriali;Festivi;Prefestivi;;Anno;01 Motocicli;02 Auto e monovolume;03 Auto e monovolume con rimorchio;04 Furgoncini e camioncini;05 Camion medi;06 Camion grandi;07 Autotreni;08 Autoarticolati;09 Autobus;10 Veicoli non classificati;Totale;Feriali;Festivi;Prefestivi;;Anno;01 Motocicli;02 Auto e monovolume;03 Auto e monovolume con rimorchio;04 Furgoncini e camioncini;05 Camion medi;06 Camion grandi;07 Autotreni;08 Autoarticolati;09 Autobus;10 Veicoli non classificati;Totale;Feriali;Festivi;Prefestivi
2019;160;3233;4;215;20;5;14;3;15;0;3669;3802;3231;3572;;2019;74;1582;2;100;9;2;6;2;7;0;1784;1847;1537;1787;;2019;86;1651;2;115;11;3;8;1;8;0;1885;1955;1694;1785
;;;;;;;;;;;;;;;;;;;;;;;;;;;;;;;;;;;;;;;;;;;;;;
Tabella flussi 2019;;;;;;;;;;;;;;;;Tabella flussi 2019;;;;;;;;;;;;;;;;Tabella flussi 2019;;;;;;;;;;;;;;
Tratta nr.181 SR302, Km 21.800, Borgo San Lorenzo (FI) (flussi ascendente/discendente);;;;;;;;;;;;;;;;Tratta nr.181 SR302, Km 21.800, Borgo San Lorenzo (FI) (flusso ascendente);;;;;;;;;;;;;;;;Tratta nr.181 SR302, Km 21.800, Borgo San Lorenzo (FI) (flusso discendente);;;;;;;;;;;;;;
;Traffico Totale;;;;;;;;;;;Traffico Med.Orario 06:00 - 20:00;Traffico Ora di punta;;;;Traffico Totale;;;;;;;;;;;Traffico Med.Orario 06:00 - 20:00;Traffico Ora di punta;;;;Traffico Totale;;;;;;;;;;;Traffico Med.Orario 06:00 - 20:00;Traffico Ora di punta;
Giorno;01 Motocicli;02 Auto e monovolume;03 Auto e monovolume con rimorchio;04 Furgoncini e camioncini;05 Camion medi;06 Camion grandi;07 Autotreni;08 Autoarticolati;09 Autobus;10 Veicoli non classificati;Totale;Totale;Ora di punta;Flusso totale ora di punta;;Giorno;01 Motocicli;02 Auto e monovolume;03 Auto e monovolume con rimorchio;04 Furgoncini e camioncini;05 Camion medi;06 Camion grandi;07 Autotreni;08 Autoarticolati;09 Autobus;10 Veicoli non classificati;Totale;Totale;Ora di punta;Flusso totale ora di punta;;Giorno;01 Motocicli;02 Auto e monovolume;03 Auto e monovolume con rimorchio;04 Furgoncini e camioncini;05 Camion medi;06 Camion grandi;07 Autotreni;08 Autoarticolati;09 Autobus;10 Veicoli non classificati;Totale;Totale;Ora di punta;Flusso totale ora di punta
01/01/2019;81;2226;1;47;1;0;6;0;1;0;2363;126;16;252;;01/01/2019;29;1102;1;22;0;0;3;0;0;0;1157;59;17;100;;01/01/2019;52;1124;0;25;1;0;3;0;1;0;1206;67;16;160
02/01/2019;39;2839;0;232;19;6;12;1;17;0;3165;207;17;299;;02/01/2019;9;1411;0;107;9;3;2;1;9;0;1551;101;17;163;;02/01/2019;30;1428;0;125;10;3;10;0;8;0;1614;105;7;145
03/01/2019;28;2827;4;218;11;4;3;0;17;0;3112;203;17;276;;03/01/2019;9;1397;2;96;6;3;2;0;8;0;1523;98;17;149;;03/01/2019;19;1430;2;122;5;1;1;0;9;0;1589;105;8;164
04/01/2019;25;2756;4;229;16;7;14;2;15;0;3068;198;17;281;;04/01/2019;7;1338;3;109;7;2;6;1;7;0;1480;95;15;142;;04/01/2019;18;1418;1;120;9;5;8;1;8;0;1588;103;7;152
05/01/2019;35;2640;1;140;4;0;11;0;9;0;2840;174;17;250;;05/01/2019;7;1319;1;63;2;0;8;0;6;0;1406;86;15;131;;05/01/2019;28;1321;0;77;2;0;3;0;3;0;1434;89;17;147
06/01/2019;33;2322;1;58;3;3;5;1;4;0;2430;146;16;268;;06/01/2019;15;1113;0;33;2;3;3;1;2;0;1172;69;12;126;;06/01/2019;18;1209;1;25;1;0;2;0;2;0;1258;77;16;157
07/01/2019;14;2901;0;214;28;7;8;8;16;0;3196;208;8;326;;07/01/2019;2;1423;0;104;11;3;7;4;8;0;1562;101;8;156;;07/01/2019;12;1478;0;110;17;4;1;4;8;0;1634;107;8;170
08/01/2019;33;3051;1;211;26;2;11;4;15;0;3354;219;8;329;;08/01/2019;6;1496;1;100;10;0;5;2;8;0;1628;106;8;162;;08/01/2019;27;1555;0;111;16;2;6;2;7;0;1726;113;7;180
09/01/2019;37;3091;4;227;22;8;12;4;18;0;3423;224;8;355;;09/01/2019;11;1522;2;112;9;4;6;3;8;0;1677;109;8;164;;09/01/2019;26;1569;2;115;13;4;6;1;10;0;1746;115;8;191
10/01/2019;34;3119;3;254;29;7;15;13;15;0;3489;228;8;360;;10/01/2019;7;1529;1;124;11;2;8;7;7;0;1696;110;17;177;;10/01/2019;27;1590;2;130;18;5;7;6;8;0;1793;118;8;202
11/01/2019;27;3189;4;249;30;5;15;6;17;0;3542;229;17;344;;11/01/2019;4;1565;2;123;11;2;9;4;8;0;1728;111;17;164;;11/01/2019;23;1624;2;126;19;3;6;2;9;0;1814;118;7;191
12/01/2019;39;2895;13;163;7;1;13;1;13;0;3145;198;16;255;;12/01/2019;11;1432;7;74;3;1;10;1;8;0;1547;96;15;149;;12/01/2019;28;1463;6;89;4;0;3;0;5;0;1598;102;16;143
13/01/2019;30;2198;3;54;1;0;12;0;4;0;2302;138;12;219;;13/01/2019;11;1073;2;24;1;0;8;0;2;0;1121;66;12;119;;13/01/2019;19;1125;1;30;0;0;4;0;2;0;1181;72;16;125
14/01/2019;45;3046;3;242;33;2;11;5;17;0;3404;222;8;380;;14/01/2019;13;1485;1;106;13;1;5;4;8;0;1636;106;8;165;;14/01/2019;32;1561;2;136;20;1;6;1;9;0;1768;116;8;215
15/01/2019;40;3277;0;223;42;11;17;7;18;0;3635;239;8;368;;15/01/2019;13;1636;0;106;24;3;7;4;9;0;1802;118;8;176;;15/01/2019;27;1641;0;117;18;8;10;3;9;0;1833;121;8;192
16/01/2019;35;3246;3;266;34;7;12;9;18;0;3630;236;8;383;;16/01/2019;11;1553;3;122;15;2;7;6;8;0;1727;112;8;178;;16/01/2019;24;1693;0;144;19;5;5;3;10;0;1903;124;7;219
17/01/2019;33;3086;1;208;18;3;12;6;18;0;3385;218;8;351;;17/01/2019;5;1516;1;95;8;1;6;3;9;0;1644;105;17;155;;17/01/2019;28;1570;0;113;10;2;6;3;9;0;1741;113;8;198
18/01/2019;39;3215;0;241;36;2;13;3;19;0;3568;230;8;368;;18/01/2019;10;1556;0;116;16;1;8;2;9;0;1718;112;8;174;;18/01/2019;29;1659;0;125;20;1;5;1;10;0;1850;118;8;194
19/01/2019;46;2689;2;134;6;0;7;0;12;0;2896;178;14;224;;19/01/2019;18;1312;1;62;4;0;4;0;7;0;1408;86;9;117;;19/01/2019;28;1377;1;72;2;0;3;0;5;0;1488;92;16;123
20/01/2019;36;2627;2;49;1;0;11;0;2;0;2728;163;17;346;;20/01/2019;8;1298;1;23;1;0;5;0;1;0;1337;77;17;173;;20/01/2019;28;1329;1;26;0;0;6;0;1;0;1391;86;17;173
21/01/2019;21;2920;4;238;24;3;11;11;13;0;3245;213;8;343;;21/01/2019;6;1435;2;115;11;1;2;8;8;0;1588;103;17;163;;21/01/2019;15;1485;2;123;13;2;9;3;5;0;1657;110;8;197
22/01/2019;13;2409;0;189;22;1;11;6;18;0;2669;178;8;309;;22/01/2019;3;1181;0;95;7;0;6;4;8;0;1304;86;8;149;;22/01/2019;10;1228;0;94;15;1;5;2;10;0;1365;92;7;179
23/01/2019;17;2497;1;170;19;5;13;4;15;0;2741;179;8;289;;23/01/2019;1;1227;1;78;9;3;6;2;8;0;1335;87;17;134;;23/01/2019;16;1270;0;92;10;2;7;2;7;0;1406;93;8;165
24/01/2019;26;2879;2;240;22;3;15;5;18;0;3210;208;8;320;;24/01/2019;4;1411;2;118;11;1;8;3;8;0;1566;101;8;147;;24/01/2019;22;1468;0;122;11;2;7;2;10;0;1644;107;8;173
25/01/2019;34;3102;1;243;22;8;18;4;17;0;3449;222;17;326;;25/01/2019;6;1504;1;113;11;3;6;3;8;0;1655;106;17;164;;25/01/2019;28;1598;0;130;11;5;12;1;9;0;1794;116;7;187
26/01/2019;62;2849;4;129;13;0;15;0;12;0;3084;188;17;242;;26/01/2019;23;1425;3;66;9;0;5;0;7;0;1538;93;14;125;;26/01/2019;39;1424;1;63;4;0;10;0;5;0;1546;96;17;142
27/01/2019;21;2224;6;68;3;0;7;0;4;0;2333;142;17;212;;27/01/2019;3;1078;3;25;1;0;4;0;2;0;1116;66;15;95;;27/01/2019;18;1146;3;43;2;0;3;0;2;0;1217;75;17;135
28/01/2019;28;2936;1;209;25;1;9;7;18;0;3234;211;8;349;;28/01/2019;9;1452;0;98;13;0;4;5;8;0;1589;103;8;170;;28/01/2019;19;1484;1;111;12;1;5;2;10;0;1645;108;7;193
29/01/2019;38;3090;0;226;26;5;14;4;16;0;3419;223;8;361;;29/01/2019;8;1490;0;103;11;3;5;3;7;0;1630;105;8;174;;29/01/2019;30;1600;0;123;15;2;9;1;9;0;1789;118;8;187
30/01/2019;22;2891;0;222;27;11;8;4;14;0;3199;206;8;356;;30/01/2019;7;1451;0;89;14;4;4;3;7;0;1579;97;8;164;;30/01/2019;15;1440;0;133;13;7;4;1;7;0;1620;109;7;192
31/01/2019;13;1838;0;151;15;9;15;1;14;0;2056;134;8;258;;31/01/2019;4;898;0;85;7;3;4;0;7;0;1008;66;8;121;;31/01/2019;9;940;0;66;8;6;11;1;7;0;1048;68;8;137
01/02/2019;38;2867;0;208;18;7;13;1;18;0;3170;205;8;312;;01/02/2019;6;1378;0;96;9;3;4;1;9;0;1506;97;8;145;;01/02/2019;32;1489;0;112;9;4;9;0;9;0;1664;108;8;167
02/02/2019;21;2360;2;93;5;0;11;0;11;0;2503;153;12;200;;02/02/2019;1;1152;1;46;3;0;7;0;6;0;1216;74;9;112;;02/02/2019;20;1208;1;47;2;0;4;0;5;0;1287;79;12;123
03/02/2019;25;2250;6;55;1;1;8;1;2;0;2349;142;17;234;;03/02/2019;8;1094;3;26;0;0;4;1;1;0;1137;68;12;117;;03/02/2019;17;1156;3;29;1;1;4;0;1;0;1212;75;17;141
04/02/2019;56;2943;3;228;28;8;9;5;17;0;3297;216;8;323;;04/02/2019;10;1420;1;106;13;3;6;2;8;0;1569;103;17;155;;04/02/2019;46;1523;2;122;15;5;3;3;9;0;1728;114;7;185
05/02/2019;51;3229;0;250;25;4;11;5;16;0;3591;235;8;379;;05/02/2019;13;1550;0;116;10;1;6;3;7;0;1706;111;8;190;;05/02/2019;38;1679;0;134;15;3;5;2;9;0;1885;124;8;189
06/02/2019;53;3148;4;257;33;9;17;4;18;0;3543;232;8;377;;06/02/2019;16;1541;2;123;15;2;6;2;9;0;1716;112;8;180;;06/02/2019;37;1607;2;134;18;7;11;2;9;0;1827;120;8;197
07/02/2019;42;3160;0;224;29;4;13;5;17;0;3494;226;8;355;;07/02/2019;18;1545;0;107;12;2;5;3;8;0;1700;109;8;162;;07/02/2019;24;1615;0;117;17;2;8;2;9;0;1794;117;8;193
08/02/2019;55;3409;4;225;33;4;17;10;18;0;3775;242;8;366;;08/02/2019;21;1660;1;101;17;1;10;5;9;0;1825;117;8;181;;08/02/2019;34;1749;3;124;16;3;7;5;9;0;1950;125;7;204
09/02/2019;53;2847;5;125;7;2;10;1;12;0;3062;184;16;279;;09/02/2019;19;1407;1;60;2;1;5;0;7;0;1502;85;9;123;;09/02/2019;34;1440;4;65;5;1;5;1;5;0;1560;99;16;173
10/02/2019;26;2475;2;56;2;0;13;0;2;0;2576;158;17;255;;10/02/2019;9;1188;1;27;1;0;7;0;1;0;1234;74;12;134;;10/02/2019;17;1287;1;29;1;0;6;0;1;0;1342;84;17;164
11/02/2019;65;3078;0;224;32;5;9;4;18;0;3435;223;8;355;;11/02/2019;19;1493;0;101;16;1;2;3;8;0;1643;105;8;170;;11/02/2019;46;1585;0;123;16;4;7;1;10;0;1792;117;7;200
12/02/2019;62;3338;0;233;34;7;9;4;17;0;3704;243;8;379;;12/02/2019;19;1634;0;115;14;2;2;4;8;0;1798;117;8;192;;12/02/2019;43;1704;0;118;20;5;7;0;9;0;1906;125;7;212
13/02/2019;57;3390;0;259;41;8;16;2;19;0;3792;245;8;383;;13/02/2019;14;1677;0;121;23;2;6;2;9;0;1854;119;17;191;;13/02/2019;43;1713;0;138;18;6;10;0;10;0;1938;126;7;226
14/02/2019;90;3512;3;255;32;11;16;5;15;0;3939;254;8;407;;14/02/2019;24;1684;2;112;14;2;4;3;8;0;1853;118;8;179;;14/02/2019;66;1828;1;143;18;9;12;2;7;0;2086;137;8;228
15/02/2019;73;3439;1;253;25;7;23;0;16;0;3837;246;8;368;;15/02/2019;33;1688;1;125;11;2;7;0;8;0;1875;119;8;168;;15/02/2019;40;1751;0;128;14;5;16;0;8;0;1962;126;7;205
16/02/2019;142;3110;16;174;14;1;13;4;13;0;3487;216;16;281;;16/02/2019;70;1498;7;87;6;1;6;2;7;0;1684;104;15;134;;16/02/2019;72;1612;9;87;8;0;7;2;6;0;1803;112;16;179
17/02/2019;130;3136;11;85;4;1;6;0;2;0;3375;212;17;453;;17/02/2019;57;1466;7;42;4;1;5;0;1;0;1583;97;12;170;;17/02/2019;73;1670;4;43;0;0;1;0;1;0;1792;115;17;370
18/02/2019;68;3117;4;278;32;7;12;7;17;0;3542;234;7;359;;18/02/2019;26;1516;1;133;14;1;7;3;9;0;1710;112;17;165;;18/02/2019;42;1601;3;145;18;6;5;4;8;0;1832;122;7;215
19/02/2019;55;3250;1;270;30;7;19;4;19;0;3655;239;8;372;;19/02/2019;21;1582;1;130;13;5;4;4;8;0;1768;115;17;185;;19/02/2019;34;1668;0;140;17;2;15;0;11;0;1887;124;7;207
20/02/2019;66;3340;0;307;44;5;12;7;20;0;3801;249;8;380;;20/02/2019;20;1614;0;141;14;2;4;5;10;0;1810;117;8;187;;20/02/2019;46;1726;0;166;30;3;8;2;10;0;1991;132;7;215
21/02/2019;69;3420;6;294;26;6;21;8;17;0;3867;253;8;400;;21/02/2019;19;1654;3;143;11;5;9;5;8;0;1857;119;17;184;;21/02/2019;50;1766;3;151;15;1;12;3;9;0;2010;134;8;223
22/02/2019;75;3407;2;272;32;10;13;6;17;0;3834;247;8;371;;22/02/2019;22;1682;1;127;15;4;8;4;8;0;1871;120;8;179;;22/02/2019;53;1725;1;145;17;6;5;2;9;0;1963;127;7;215
23/02/2019;76;3069;14;182;19;3;13;1;13;0;3390;212;17;267;;23/02/2019;29;1507;8;86;8;2;4;0;8;0;1652;102;10;135;;23/02/2019;47;1562;6;96;11;1;9;1;5;0;1738;110;17;153
24/02/2019;63;3110;8;77;5;1;15;1;3;0;3283;198;17;371;;24/02/2019;25;1499;4;31;2;1;4;1;2;0;1569;88;15;153;;24/02/2019;38;1611;4;46;3;0;11;0;1;0;1714;110;17;291
25/02/2019;50;3315;2;260;34;2;12;5;18;0;3698;242;8;413;;25/02/2019;23;1706;1;127;13;1;8;3;8;0;1890;123;8;218;;25/02/2019;27;1609;1;133;21;1;4;2;10;0;1808;119;7;208
26/02/2019;83;3306;1;251;31;4;12;6;18;0;3712;245;8;374;;26/02/2019;28;1621;0;112;14;2;5;4;8;0;1794;118;8;190;;26/02/2019;55;1685;1;139;17;2;7;2;10;0;1918;127;7;202
27/02/2019;92;3663;0;234;31;6;14;3;18;0;4061;259;8;405;;27/02/2019;41;1763;0;106;13;2;8;1;9;0;1943;118;8;191;;27/02/2019;51;1900;0;128;18;4;6;2;9;0;2118;141;7;214
28/02/2019;64;3411;3;260;26;4;9;8;17;0;3802;244;8;387;;28/02/2019;29;1686;1;124;12;2;5;5;9;0;1873;118;8;187;;28/02/2019;35;1725;2;136;14;2;4;3;8;0;1929;126;7;208
01/03/2019;54;3478;5;239;24;6;11;4;19;0;3840;247;8;362;;01/03/2019;13;1706;3;107;12;3;5;3;10;0;1862;119;17;179;;01/03/2019;41;1772;2;132;12;3;6;1;9;0;1978;127;7;200
02/03/2019;194;3158;13;146;8;0;8;0;12;0;3539;220;17;296;;02/03/2019;94;1533;6;63;5;0;4;0;7;0;1712;105;15;149;;02/03/2019;100;1625;7;83;3;0;4;0;5;0;1827;114;17;210
03/03/2019;183;2959;11;71;2;0;9;0;3;0;3238;204;17;409;;03/03/2019;86;1384;5;27;0;0;2;0;2;0;1506;93;15;156;;03/03/2019;97;1575;6;44;2;0;7;0;1;0;1732;111;17;321
04/03/2019;53;3104;2;250;20;8;12;5;18;0;3472;228;8;369;;04/03/2019;24;1519;1;118;10;4;6;4;8;0;1694;110;8;169;;04/03/2019;29;1585;1;132;10;4;6;1;10;0;1778;118;7;207
05/03/2019;69;3304;1;225;35;7;17;4;15;0;3677;239;8;383;;05/03/2019;28;1639;1;110;18;1;11;3;7;0;1818;118;8;194;;05/03/2019;41;1665;0;115;17;6;6;1;8;0;1859;121;7;218
06/03/2019;60;3373;0;272;27;10;9;7;19;0;3777;247;8;394;;06/03/2019;22;1670;0;128;16;7;4;4;9;0;1860;121;17;183;;06/03/2019;38;1703;0;144;11;3;5;3;10;0;1917;127;8;219
07/03/2019;75;3412;5;285;31;8;18;5;14;0;3853;251;8;387;;07/03/2019;25;1639;2;144;15;4;9;3;6;0;1847;120;8;187;;07/03/2019;50;1773;3;141;16;4;9;2;8;0;2006;131;7;218
08/03/2019;110;3761;2;267;21;10;14;3;19;0;4207;270;8;397;;08/03/2019;42;1839;1;119;11;3;5;2;9;0;2031;130;8;191;;08/03/2019;68;1922;1;148;10;7;9;1;10;0;2176;139;7;230
09/03/2019;202;3034;11;176;17;0;12;1;11;0;3464;214;17;284;;09/03/2019;72;1507;5;79;10;0;11;0;6;0;1690;104;15;145;;09/03/2019;130;1527;6;97;7;0;1;1;5;0;1774;110;17;181
10/03/2019;79;2910;1;78;4;0;11;0;4;0;3087;186;17;309;;10/03/2019;40;1392;0;30;2;0;7;0;2;0;1473;84;12;134;;10/03/2019;39;1518;1;48;2;0;4;0;2;0;1614;102;17;228
11/03/2019;59;3150;2;253;25;5;13;7;15;0;3529;229;7;374;;11/03/2019;18;1554;1;123;10;1;6;5;8;0;1726;110;8;172;;11/03/2019;41;1596;1;130;15;4;7;2;7;0;1803;118;7;235
12/03/2019;58;3378;2;302;26;14;18;5;18;0;3821;250;8;374;;12/03/2019;22;1626;1;153;11;7;8;3;8;0;1839;120;8;181;;12/03/2019;36;1752;1;149;15;7;10;2;10;0;1982;130;7;214
13/03/2019;27;3368;0;276;28;4;16;8;19;0;3746;242;8;407;;13/03/2019;4;1645;0;128;18;1;6;5;9;0;1816;117;8;189;;13/03/2019;23;1723;0;148;10;3;10;3;10;0;1930;126;8;218
14/03/2019;66;3414;1;240;37;3;14;7;19;0;3801;247;8;383;;14/03/2019;26;1676;0;114;18;0;6;5;9;0;1854;119;17;177;;14/03/2019;40;1738;1;126;19;3;8;2;10;0;1947;128;7;225
15/03/2019;91;3525;4;245;24;10;20;6;18;0;3943;253;8;392;;15/03/2019;40;1716;2;118;11;4;10;3;9;0;1913;122;8;162;;15/03/2019;51;1809;2;127;13;6;10;3;9;0;2030;130;8;230
16/03/2019;296;3146;3;125;11;1;12;1;13;0;3608;222;15;293;;16/03/2019;142;1543;2;58;5;1;6;1;8;0;1766;109;10;146;;16/03/2019;154;1603;1;67;6;0;6;0;5;0;1842;114;18;174
17/03/2019;178;2718;2;82;1;2;12;0;3;0;2998;185;17;326;;17/03/2019;108;1268;0;42;0;1;7;0;2;0;1428;86;12;140;;17/03/2019;70;1450;2;40;1;1;5;0;1;0;1570;99;17;224
18/03/2019;35;3187;0;249;27;1;10;2;20;0;3531;230;7;368;;18/03/2019;6;1562;0;115;15;0;4;1;10;0;1713;111;8;182;;18/03/2019;29;1625;0;134;12;1;6;1;10;0;1818;119;7;218
19/03/2019;41;3402;0;255;32;3;16;3;20;0;3772;248;8;385;;19/03/2019;10;1656;0;120;14;2;7;3;9;0;1821;119;8;180;;19/03/2019;31;1746;0;135;18;1;9;0;11;0;1951;129;7;216
20/03/2019;67;3479;1;287;31;7;7;7;18;0;3904;254;8;375;;20/03/2019;20;1696;1;128;12;3;7;4;8;0;1879;123;8;177;;20/03/2019;47;1783;0;159;19;4;0;3;10;0;2025;132;7;209
21/03/2019;76;3531;1;273;27;4;21;5;17;0;3955;255;8;383;;21/03/2019;26;1712;0;133;10;2;10;4;8;0;1905;121;8;186;;21/03/2019;50;1819;1;140;17;2;11;1;9;0;2050;133;7;223
22/03/2019;92;3558;0;290;26;6;16;1;16;0;4005;257;8;381;;22/03/2019;37;1723;0;128;10;0;6;1;8;0;1913;123;8;176;;22/03/2019;55;1835;0;162;16;6;10;0;8;0;2092;135;7;218
23/03/2019;538;3389;5;189;12;2;13;1;11;0;4160;262;16;371;;23/03/2019;298;1668;0;92;3;0;3;0;7;0;2071;130;10;196;;23/03/2019;240;1721;5;97;9;2;10;1;4;0;2089;131;17;249
24/03/2019;315;3457;13;79;7;0;21;0;3;0;3895;243;17;425;;24/03/2019;130;1654;6;33;4;0;9;0;2;0;1838;114;12;220;;24/03/2019;185;1803;7;46;3;0;12;0;1;0;2057;129;18;318
25/03/2019;108;3554;0;279;25;10;12;8;16;0;4012;262;8;413;;25/03/2019;50;1733;0;125;9;3;7;5;8;0;1940;125;17;196;;25/03/2019;58;1821;0;154;16;7;5;3;8;0;2072;137;7;234
26/03/2019;50;3481;1;246;39;9;19;7;16;0;3868;255;8;420;;26/03/2019;12;1666;1;119;16;3;11;5;8;0;1841;120;17;178;;26/03/2019;38;1815;0;127;23;6;8;2;8;0;2027;135;8;243
27/03/2019;71;3636;3;292;32;2;17;2;19;0;4074;259;8;405;;27/03/2019;25;1787;2;138;19;0;11;1;9;0;1992;125;8;197;;27/03/2019;46;1849;1;154;13;2;6;1;10;0;2082;134;7;251
28/03/2019;72;3625;2;271;18;7;20;4;15;0;4034;259;8;396;;28/03/2019;33;1707;0;132;8;3;11;2;8;0;1904;122;8;189;;28/03/2019;39;1918;2;139;10;4;9;2;7;0;2130;137;7;244
29/03/2019;102;3666;4;290;23;4;16;3;21;0;4129;263;8;410;;29/03/2019;38;1778;2;134;13;3;8;1;11;0;1988;126;8;182;;29/03/2019;64;1888;2;156;10;1;8;2;10;0;2141;137;8;228
30/03/2019;350;3386;17;171;10;1;19;0;13;0;3967;247;18;315;;30/03/2019;170;1633;8;81;7;0;8;0;8;0;1915;121;14;163;;30/03/2019;180;1753;9;90;3;1;11;0;5;0;2052;127;18;205
31/03/2019;284;3363;4;86;4;0;13;1;2;0;3757;232;18;416;;31/03/2019;138;1615;3;41;0;0;7;1;1;0;1806;111;18;166;;31/03/2019;146;1748;1;45;4;0;6;0;1;0;1951;120;17;251
01/04/2019;126;3531;6;271;23;1;19;4;20;0;4001;261;7;397;;01/04/2019;47;1720;2;141;13;0;11;2;9;0;1945;125;17;187;;01/04/2019;79;1811;4;130;10;1;8;2;11;0;2056;136;7;231
02/04/2019;99;3639;3;266;23;7;12;5;19;0;4073;266;8;388;;02/04/2019;37;1740;2;125;12;4;5;3;10;0;1938;125;8;192;;02/04/2019;62;1899;1;141;11;3;7;2;9;0;2135;140;7;217
03/04/2019;51;3561;2;286;22;9;13;4;17;0;3965;256;8;425;;03/04/2019;17;1740;1;134;11;4;6;1;9;0;1923;123;8;189;;03/04/2019;34;1821;1;152;11;5;7;3;8;0;2042;133;8;236
04/04/2019;45;3376;3;270;33;5;21;10;18;0;3781;246;8;384;;04/04/2019;16;1632;2;134;15;2;11;6;9;0;1827;117;8;184;;04/04/2019;29;1744;1;136;18;3;10;4;9;0;1954;128;7;202
05/04/2019;60;3554;5;243;20;5;13;9;16;0;3925;250;7;382;;05/04/2019;20;1729;4;111;9;3;5;3;8;0;1892;120;8;168;;05/04/2019;40;1825;1;132;11;2;8;6;8;0;2033;130;7;222
06/04/2019;213;3356;10;152;15;2;18;3;12;0;3781;229;18;351;;06/04/2019;110;1650;7;65;5;2;6;2;7;0;1854;112;15;142;;06/04/2019;103;1706;3;87;10;0;12;1;5;0;1927;117;18;220
07/04/2019;99;2913;3;72;2;0;15;1;5;0;3110;188;17;291;;07/04/2019;32;1385;1;31;1;0;9;1;2;0;1462;85;15;167;;07/04/2019;67;1528;2;41;1;0;6;0;3;0;1648;103;17;184
08/04/2019;84;3432;5;261;24;2;15;7;19;0;3849;248;8;419;;08/04/2019;33;1677;3;130;12;1;8;6;9;0;1879;120;17;192;;08/04/2019;51;1755;2;131;12;1;7;1;10;0;1970;128;8;241
09/04/2019;94;3626;13;308;25;5;14;2;20;0;4107;267;8;436;;09/04/2019;34;1771;6;142;10;3;7;1;10;0;1984;128;8;210;;09/04/2019;60;1855;7;166;15;2;7;1;10;0;2123;139;7;228
10/04/2019;104;3507;6;259;31;10;13;9;18;0;3957;256;8;418;;10/04/2019;47;1730;2;117;15;4;8;7;7;0;1937;124;8;200;;10/04/2019;57;1777;4;142;16;6;5;2;11;0;2020;132;7;227
11/04/2019;45;3446;4;304;29;3;9;6;21;0;3867;249;8;369;;11/04/2019;18;1644;3;139;13;1;5;5;12;0;1840;117;17;174;;11/04/2019;27;1802;1;165;16;2;4;1;9;0;2027;132;7;211
12/04/2019;83;3829;6;299;28;5;13;4;17;0;4284;276;8;422;;12/04/2019;29;1802;4;136;12;0;5;1;8;0;1997;129;8;203;;12/04/2019;54;2027;2;163;16;5;8;3;9;0;2287;147;7;227
13/04/2019;199;3562;6;180;14;3;12;2;14;0;3992;238;15;324;;13/04/2019;73;1762;5;97;8;1;7;2;8;0;1963;117;10;151;;13/04/2019;126;1800;1;83;6;2;5;0;6;0;2029;122;15;174
14/04/2019;87;2572;5;103;8;1;8;0;3;0;2787;167;17;319;;14/04/2019;6;1179;2;37;4;1;3;0;1;0;1233;72;17;148;;14/04/2019;81;1393;3;66;4;0;5;0;2;0;1554;96;18;183
15/04/2019;95;3529;1;255;25;1;22;2;18;0;3948;256;8;418;;15/04/2019;32;1723;0;116;14;1;13;2;9;0;1910;123;17;203;;15/04/2019;63;1806;1;139;11;0;9;0;9;0;2038;133;7;233
16/04/2019;125;3745;1;250;27;9;16;5;20;0;4198;275;8;405;;16/04/2019;58;1800;0;122;14;6;8;4;9;0;2021;132;17;204;;16/04/2019;67;1945;1;128;13;3;8;1;11;0;2177;143;7;214
17/04/2019;141;3765;1;313;21;11;18;9;17;0;4296;278;7;425;;17/04/2019;72;1847;0;142;10;5;11;6;8;0;2101;135;17;184;;17/04/2019;69;1918;1;171;11;6;7;3;9;0;2195;143;7;272
18/04/2019;161;3908;3;313;31;3;12;13;19;0;4463;283;17;426;;18/04/2019;66;1745;3;127;12;2;5;5;8;0;1973;126;17;192;;18/04/2019;95;2163;0;186;19;1;7;8;11;0;2490;158;17;234
19/04/2019;198;4130;2;284;22;7;18;2;14;0;4677;296;18;416;;19/04/2019;83;1815;1;120;14;3;8;1;7;0;2052;130;15;169;;19/04/2019;115;2315;1;164;8;4;10;1;7;0;2625;166;18;267
20/04/2019;401;3062;15;194;5;4;13;0;10;0;3704;233;15;309;;20/04/2019;207;1465;8;83;2;1;6;0;6;0;1778;110;10;157;;20/04/2019;194;1597;7;111;3;3;7;0;4;0;1926;123;17;199
21/04/2019;165;2611;3;61;3;2;12;0;2;0;2859;174;12;314;;21/04/2019;95;1276;2;31;0;0;4;0;2;0;1410;86;12;197;;21/04/2019;70;1335;1;30;3;2;8;0;0;0;1449;88;18;184
22/04/2019;159;3457;10;122;9;2;14;0;2;0;3775;243;18;420;;22/04/2019;69;1751;4;74;6;2;10;0;1;0;1917;123;16;190;;22/04/2019;90;1706;6;48;3;0;4;0;1;0;1858;119;18;244
23/04/2019;36;3291;2;269;9;3;16;6;15;0;3647;237;17;352;;23/04/2019;7;1651;1;141;6;2;6;3;7;0;1824;118;17;184;;23/04/2019;29;1640;1;128;3;1;10;3;8;0;1823;119;7;175
24/04/2019;73;3480;0;302;18;3;10;1;18;0;3905;250;17;376;;24/04/2019;27;1727;0;143;9;1;4;1;8;0;1920;123;17;213;;24/04/2019;46;1753;0;159;9;2;6;0;10;0;1985;126;7;186
25/04/2019;346;3157;5;106;7;0;9;1;3;0;3634;229;16;341;;25/04/2019;147;1498;1;43;4;0;3;0;2;0;1698;107;11;182;;25/04/2019;199;1659;4;63;3;0;6;1;1;0;1936;123;16;220
26/04/2019;104;3235;2;224;11;1;12;6;18;0;3613;228;17;289;;26/04/2019;47;1592;1;105;4;0;3;3;8;0;1763;112;17;160;;26/04/2019;57;1643;1;119;7;1;9;3;10;0;1850;116;7;144
27/04/2019;428;3327;15;160;13;2;17;0;14;0;3976;246;17;377;;27/04/2019;229;1729;7;78;9;1;11;0;7;0;2071;129;15;186;;27/04/2019;199;1598;8;82;4;1;6;0;7;0;1905;117;18;193
28/04/2019;116;3530;8;125;5;1;10;0;3;0;3798;234;16;380;;28/04/2019;80;1995;5;78;4;0;6;0;1;0;2169;134;16;220;;28/04/2019;36;1535;3;47;1;1;4;0;2;0;1629;101;17;171
29/04/2019;75;3382;2;296;28;5;15;6;19;0;3828;246;8;382;;29/04/2019;21;1678;1;141;11;1;6;4;10;0;1873;118;17;193;;29/04/2019;54;1704;1;155;17;4;9;2;9;0;1955;128;8;202
30/04/2019;133;3610;2;280;26;2;14;2;20;0;4089;261;8;389;;30/04/2019;70;1777;1;132;16;0;5;2;11;0;2014;128;17;202;;30/04/2019;63;1833;1;148;10;2;9;0;9;0;2075;133;7;208
01/05/2019;312;3426;17;104;8;1;13;1;1;0;3883;246;16;428;;01/05/2019;176;1644;8;50;5;1;5;1;1;0;1891;119;12;234;;01/05/2019;136;1782;9;54;3;0;8;0;0;0;1992;127;16;291
02/05/2019;112;3676;4;264;37;10;14;8;20;0;4145;266;8;395;;02/05/2019;52;1814;1;127;17;3;3;7;10;0;2034;131;17;208;;02/05/2019;60;1862;3;137;20;7;11;1;10;0;2111;135;8;206
03/05/2019;56;3806;4;252;25;5;11;7;17;0;4183;272;8;400;;03/05/2019;21;1875;3;111;10;3;7;3;8;0;2041;133;18;200;;03/05/2019;35;1931;1;141;15;2;4;4;9;0;2142;139;7;228
04/05/2019;80;3150;0;113;11;1;10;0;13;0;3378;203;14;257;;04/05/2019;38;1585;0;45;5;0;5;0;7;0;1685;101;14;148;;04/05/2019;42;1565;0;68;6;1;5;0;6;0;1693;102;18;145
05/05/2019;9;2237;1;51;1;0;8;0;2;0;2309;132;17;195;;05/05/2019;1;1083;1;19;0;0;2;0;1;0;1107;63;16;97;;05/05/2019;8;1154;0;32;1;0;6;0;1;0;1202;69;17;120
06/05/2019;66;3407;3;263;15;7;16;2;19;0;3798;246;8;401;;06/05/2019;25;1677;2;123;9;2;8;2;8;0;1856;118;8;188;;06/05/2019;41;1730;1;140;6;5;8;0;11;0;1942;128;7;224
07/05/2019;121;3588;1;260;23;4;15;3;20;0;4035;263;8;417;;07/05/2019;55;1748;1;127;10;2;6;3;9;0;1961;126;8;223;;07/05/2019;66;1840;0;133;13;2;9;0;11;0;2074;136;7;227
08/05/2019;61;3611;2;290;22;8;13;4;20;0;4031;260;17;386;;08/05/2019;24;1774;1;129;9;3;6;3;9;0;1958;126;17;201;;08/05/2019;37;1837;1;161;13;5;7;1;11;0;2073;134;7;224
09/05/2019;45;3513;2;228;26;2;17;8;18;0;3859;248;8;384;;09/05/2019;12;1730;1;112;12;0;9;2;8;0;1886;121;8;180;;09/05/2019;33;1783;1;116;14;2;8;6;10;0;1973;127;8;204